Location: Kergonan
(48.2337°N, 4.5518°W)
Time: 22:11:29
(UTC+00:00)

DMSP B5D2-2 - Pass Details

Date: 18 January 2020
Orbit: 790 x 805 km, 98.3° (Epoch: 16 February)

Event Time Altitude Azimuth Distance (km) Brightness Sun altitude
Rises 07:24:21 0° 159° (SSE) 3,288 8.0 -6.4°
Reaches altitude 10° 07:26:40 10° 158° (SSE) 2,365 7.3 -6.1°
Maximum altitude 07:31:53 76° 73° (ENE) 828 4.3 -5.3°
Drops below altitude 10° 07:37:10 10° 349° (NNW) 2,392 6.2 -4.5°
Sets 07:39:31 0° 348° (NNW) 3,328 6.9 -4.2°
